When you browse on this site, cookies collect data to enhance your experience and personalize the content and advertising you see.
Visit our Privacy Policy to learn more. By continuing to use the site, you agree to this use of cookies and data.
  • In United States
  • List of Countries
  • For 7 days
  • Water Temperature
  • Satellite Maps
  • Weather Map
  • Weather Widgets
  • user-avatar
    Login

    Hourly Weather Namibe

    Today, 11 December, Tuesday

    Time Temperature Precipitation Wind Pressure Humidity
    00:00 +25°C° 0 mm 1 mps 761 mmHg 76%
    01:00 +25°C° 0 mm 1 mps 761 mmHg 77%
    02:00 +25°C° 0 mm 1 mps 760 mmHg 78%
    03:00 +25°C° 0 mm 1 mps 760 mmHg 78%
    04:00 +24°C° 0 mm 1 mps 760 mmHg 79%
    05:00 +25°C° 0 mm 1 mps 760 mmHg 79%
    06:00 +25°C° 0 mm 1 mps 760 mmHg 78%
    07:00 +25°C° 0 mm 1 mps 760 mmHg 78%
    08:00 +27°C° 0 mm 1 mps 760 mmHg 69%
    09:00 +29°C° 0 mm 2 mps 760 mmHg 61%
    10:00 +31°C° 0 mm 2 mps 760 mmHg 52%
    11:00 +33°C° 0 mm 3 mps 760 mmHg 49%
    12:00 +34°C° 0 mm 4 mps 759 mmHg 46%
    13:00 +35°C° 0 mm 5 mps 759 mmHg 43%
    14:00 +34°C° 0 mm 5 mps 759 mmHg 45%
    15:00 +33°C° 0 mm 5 mps 758 mmHg 47%
    16:00 +32°C° 0 mm 6 mps 758 mmHg 50%
    17:00 +30°C° 0 mm 5 mps 758 mmHg 56%
    18:00 +28°C° 0 mm 5 mps 759 mmHg 62%
    19:00 +27°C° 0 mm 4 mps 759 mmHg 68%
    20:00 +26°C° 0 mm 4 mps 760 mmHg 70%
    21:00 +26°C° 0 mm 3 mps 760 mmHg 71%
    22:00 +25°C° 0 mm 3 mps 761 mmHg 73%
    23:00 +25°C° 0 mm 3 mps 761 mmHg 73%

    Tomorrow, 12 December, Wednesday

    Time Temperature Precipitation Wind Pressure Humidity
    00:00 +25°C° 0 mm 3 mps 760 mmHg 74%
    01:00 +25°C° 0 mm 3 mps 760 mmHg 74%
    02:00 +25°C° 0 mm 3 mps 760 mmHg 74%
    03:00 +25°C° 0 mm 3 mps 759 mmHg 75%
    04:00 +25°C° 0 mm 3 mps 759 mmHg 75%
    05:00 +25°C° 0 mm 3 mps 759 mmHg 75%
    06:00 +25°C° 0 mm 2 mps 759 mmHg 74%
    07:00 +25°C° 0 mm 2 mps 759 mmHg 73%
    08:00 +27°C° 0 mm 2 mps 759 mmHg 64%
    09:00 +29°C° 0 mm 2 mps 759 mmHg 54%
    10:00 +31°C° 0 mm 3 mps 759 mmHg 44%
    11:00 +34°C° 0 mm 3 mps 759 mmHg 41%
    12:00 +35°C° 0 mm 4 mps 758 mmHg 37%
    13:00 +36°C° 0 mm 5 mps 758 mmHg 34%
    14:00 +35°C° 0 mm 6 mps 757 mmHg 37%
    15:00 +34°C° 0 mm 6 mps 757 mmHg 40%
    16:00 +33°C° 0 mm 6 mps 757 mmHg 44%
    17:00 +30°C° 0 mm 6 mps 757 mmHg 49%
    18:00 +28°C° 0 mm 5 mps 758 mmHg 55%
    19:00 +27°C° 0 mm 5 mps 759 mmHg 61%
    20:00 +26°C° 0 mm 4 mps 759 mmHg 62%
    21:00 +26°C° 0 mm 4 mps 760 mmHg 63%
    22:00 +25°C° 0 mm 3 mps 761 mmHg 65%
    23:00 +25°C° 0 mm 3 mps 760 mmHg 65%

    Day after tomorrow, 13 December, Thursday

    Time Temperature Precipitation Wind Pressure Humidity
    00:00 +25°C° 0 mm 2 mps 760 mmHg 65%
    01:00 +25°C° 0 mm 2 mps 760 mmHg 65%
    02:00 +25°C° 0 mm 2 mps 759 mmHg 67%
    03:00 +24°C° 0 mm 2 mps 759 mmHg 68%
    04:00 +24°C° 0 mm 2 mps 759 mmHg 69%
    05:00 +24°C° 0 mm 2 mps 759 mmHg 69%
    06:00 +25°C° 0 mm 2 mps 760 mmHg 68%
    07:00 +25°C° 0 mm 2 mps 760 mmHg 67%
    08:00 +27°C° 0 mm 2 mps 760 mmHg 57%
    09:00 +30°C° 0 mm 3 mps 760 mmHg 46%
    10:00 +33°C° 0 mm 3 mps 760 mmHg 36%
    11:00 +34°C° 0 mm 4 mps 760 mmHg 34%
    12:00 +35°C° 0 mm 5 mps 759 mmHg 32%
    13:00 +36°C° 0 mm 6 mps 758 mmHg 30%
    14:00 +35°C° 0 mm 6 mps 757 mmHg 31%
    15:00 +34°C° 0 mm 6 mps 757 mmHg 32%
    16:00 +33°C° 0 mm 6 mps 757 mmHg 33%
    17:00 +32°C° 0 mm 6 mps 757 mmHg 39%
    18:00 +29°C° 0 mm 5 mps 758 mmHg 45%
    19:00 +27°C° 0 mm 5 mps 758 mmHg 51%
    20:00 +27°C° 0 mm 4 mps 759 mmHg 54%
    21:00 +26°C° 0 mm 3 mps 760 mmHg 57%
    22:00 +26°C° 0 mm 3 mps 760 mmHg 59%
    23:00 +25°C° 0 mm 2 mps 760 mmHg 62%

    14 December, Friday

    Time Temperature Precipitation Wind Pressure Humidity
    00:00 +25°C° 0 mm 2 mps 760 mmHg 64%
    01:00 +25°C° 0 mm 2 mps 760 mmHg 66%
    02:00 +24°C° 0 mm 2 mps 759 mmHg 69%
    03:00 +24°C° 0 mm 2 mps 759 mmHg 72%
    04:00 +23°C° 0 mm 2 mps 759 mmHg 75%
    05:00 +23°C° 0 mm 2 mps 759 mmHg 75%
    06:00 +23°C° 0 mm 2 mps 760 mmHg 75%
    07:00 +24°C° 0 mm 2 mps 760 mmHg 75%
    08:00 +26°C° 0 mm 2 mps 760 mmHg 63%
    09:00 +28°C° 0 mm 2 mps 760 mmHg 50%
    10:00 +30°C° 0 mm 3 mps 760 mmHg 38%
    11:00 +31°C° 0 mm 3 mps 759 mmHg 37%
    12:00 +33°C° 0 mm 4 mps 759 mmHg 35%
    13:00 +34°C° 0 mm 5 mps 758 mmHg 34%
    14:00 +33°C° 0 mm 5 mps 757 mmHg 38%
    15:00 +32°C° 0 mm 5 mps 757 mmHg 41%
    16:00 +30°C° 0 mm 5 mps 757 mmHg 45%
    17:00 +29°C° 0 mm 5 mps 757 mmHg 49%
    18:00 +28°C° 0 mm 4 mps 758 mmHg 52%
    19:00 +27°C° 0 mm 4 mps 758 mmHg 56%
    20:00 +27°C° 0 mm 3 mps 759 mmHg 58%
    21:00 +27°C° 0 mm 3 mps 759 mmHg 59%
    22:00 +27°C° 0 mm 3 mps 759 mmHg 60%
    23:00 +26°C° 0 mm 2 mps 759 mmHg 62%

    15 December, Saturday

    Time Temperature Precipitation Wind Pressure Humidity
    00:00 +26°C° 0 mm 2 mps 759 mmHg 65%
    01:00 +26°C° 0 mm 2 mps 758 mmHg 67%
    02:00 +25°C° 0 mm 2 mps 758 mmHg 68%
    03:00 +25°C° 0 mm 2 mps 758 mmHg 70%
    04:00 +25°C° 0 mm 2 mps 758 mmHg 72%
    05:00 +25°C° 0 mm 2 mps 759 mmHg 72%
    06:00 +25°C° 0 mm 2 mps 759 mmHg 72%
    07:00 +25°C° 0 mm 3 mps 760 mmHg 72%
    08:00 +26°C° 0 mm 3 mps 760 mmHg 69%
    09:00 +27°C° 0 mm 4 mps 760 mmHg 67%
    10:00 +27°C° 0 mm 4 mps 760 mmHg 65%
    11:00 +29°C° 0 mm 5 mps 759 mmHg 59%
    12:00 +32°C° 0 mm 5 mps 758 mmHg 53%
    13:00 +34°C° 0 mm 6 mps 758 mmHg 48%
    14:00 +33°C° 0 mm 6 mps 757 mmHg 48%
    15:00 +33°C° 0 mm 5 mps 757 mmHg 49%
    16:00 +32°C° 0 mm 5 mps 757 mmHg 50%
    17:00 +30°C° 0 mm 4 mps 757 mmHg 55%
    18:00 +28°C° 0 mm 4 mps 758 mmHg 60%
    19:00 +27°C° 0 mm 3 mps 758 mmHg 65%
    20:00 +27°C° 0 mm 2 mps 759 mmHg 66%
    21:00 +27°C° 0 mm 2 mps 759 mmHg 67%
    22:00 +26°C° 0 mm 1 mps 759 mmHg 68%
    23:00 +26°C° 0 mm 1 mps 759 mmHg 67%

    16 December, Sunday

    Time Temperature Precipitation Wind Pressure Humidity
    00:00 +26°C° 0 mm 1 mps 759 mmHg 67%
    01:00 +27°C° 0 mm 1 mps 758 mmHg 67%
    02:00 +26°C° 0 mm 1 mps 758 mmHg 68%
    03:00 +26°C° 0 mm 1 mps 758 mmHg 70%
    04:00 +26°C° 0 mm 1 mps 758 mmHg 71%
    05:00 +26°C° 0 mm 1 mps 758 mmHg 71%
    06:00 +26°C° 0 mm 1 mps 759 mmHg 71%
    07:00 +26°C° 0 mm 1 mps 759 mmHg 71%
    08:00 +28°C° 0 mm 1 mps 759 mmHg 61%
    09:00 +31°C° 0 mm 1 mps 759 mmHg 51%
    10:00 +34°C° 0 mm 2 mps 759 mmHg 42%
    11:00 +35°C° 0 mm 3 mps 758 mmHg 40%
    12:00 +36°C° 0 mm 4 mps 758 mmHg 38%
    13:00 +37°C° 0 mm 5 mps 757 mmHg 36%
    14:00 +36°C° 0 mm 5 mps 757 mmHg 38%
    15:00 +35°C° 0 mm 5 mps 757 mmHg 39%
    16:00 +34°C° 0 mm 5 mps 756 mmHg 41%
    17:00 +32°C° 0 mm 4 mps 757 mmHg 49%
    18:00 +30°C° 0 mm 4 mps 758 mmHg 56%
    19:00 +28°C° 0 mm 4 mps 758 mmHg 64%
    20:00 +27°C° 0 mm 3 mps 759 mmHg 66%
    21:00 +27°C° 0 mm 2 mps 759 mmHg 69%
    22:00 +27°C° 0 mm 1 mps 760 mmHg 72%
    23:00 +26°C° 0 mm 1 mps 759 mmHg 73%
    Show more